Regional Weather Roundup
Issued by NWS New Orleans/Baton Rouge, LA

Home | Current Version | Previous Version | Text Only | Print | Product List | Glossary Off
Versions: 1 2 3 4 5 6 7 8 9 10 11 12 13 14 15 16 17 18 19 20 21 22 23 24 25 26 27 28 29 30 31 32 33 34 35 36 37 38 39 40 41 42 43 44 45 46 47 48 49 50

507
ASUS44 KLIX 172105
RWRLIX
NEW ORLEANS REGIONAL WEATHER ROUNDUP
NATIONAL WEATHER SERVICE NEW ORLEANS LA
300 PM CST WED DEC 17 2014

NOTE: "FAIR" INDICATES FEW OR NO CLOUDS BELOW 12,000 FEET WITH NO
      SIGNIFICANT WEATHER AND/OR OBSTRUCTIONS TO VISIBILITY.
      SKY/WX - SKY CONDITION AND SIGNIFICANT WEATHER.
      TMP - AIR TEMPERATURE.     DP    - DEWPOINT TEMPERATURE.
      RH  - RELATIVE HUMIDITY.   PRES  - PRESSURE.
      HI  - HEAT INDEX.          WCI   - WIND CHILL INDEX.

*  THESE STATIONS ARE NOT NWS OR FAA STATIONS AND ARE NOT UNDER
   NWS QUALITY CONTROL.

LAZ038-040-048-061>063-065>067-069-172200-
SOUTHEAST LOUISIANA

CITY           SKY/WX    TMP DP  RH WIND       PRES   REMARKS
N.O. AUDUBON     N/A     59  45  59 MISG        N/A
N.O. INTL ARPT PTSUNNY   57  41  55 NE5       30.20F
N.O. LAKEFRONT MOSUNNY   59  37  44 CALM      30.20F
N.O. DOWNTOWN*   N/A     57  39  51 NE3       30.20F
SLIDELL        MOSUNNY   62  39  42 MISG      30.19F
BATON ROUGE    SUNNY     60  38  43 NE3       30.19F
BOOTHVILLE     CLOUDY    59  48  67 N6        30.21R
BELLE CHASSE   PTSUNNY   60  42  51 VRB6      30.19F
BOGALUSA*        N/A     60  40  49 N6        30.21F
GALLIANO*      PTCLDY    62  44  51 MISG      30.19F
NEW ROADS*       N/A     59  39  47 NE3       30.19F
GONZALES*        N/A     60  40  48 NE5       30.18F
HAMMOND*       NOT AVBL
HOUMA*         NOT AVBL
PORT FOURCHON* CLEAR     61  46  59 NE9       30.22F

$$

MSZ070-080>082-172200-
SOUTHERN MISSISSIPPI

CITY           SKY/WX    TMP DP  RH WIND       PRES   REMARKS
MCCOMB         MOSUNNY   58  39  49 CALM      30.20S
GULFPORT       PTSUNNY   60  39  45 W6        30.20R
BILOXI         PTSUNNY   59  40  48 N3        30.20R
PASCAGOULA     PTSUNNY   60  38  43 N5        30.19S
STENNIS ARPT*  SUNNY     59  36  41 VRB5      30.20S

$$

COASTAL OBSERVATIONS
LAKE AND NEARSHORE STATIONS

STATION/POSITION TIME  TEMP    WIND        PRES    WAVE
                       AIR SEA DIR/SP/G            HT/PER
                 (UTC) (F)     (DEG/KT/KT) (MB)    (FT/S)
PASCAGOULA       2100   56     190/  5/  6 1021.7
WAVELAND YACHT   2100   55     170/  7/  8 1021.9
GRAND ISLE       2100   60 61   40/  6/  8 1022.8
SOUTHWEST PASS   2100   63                 1022.6
NEW CANAL        2100   55 58   50/  5/  6 1022.8
SHELL BEACH      2100   55 60   20/  5/  6 1022.7

OFFSHORE STATIONS

STATION/POSITION TIME  TEMP    WIND        PRES    WAVE
                       AIR SEA DIR/SP/G            HT/PER
                 (UTC) (F)     (DEG/KT/KT) (MB)    (FT/S)
64 S DAUPHIN ISL 2100   61 74   20/  8/ 12 1020.9    2/ 5

$$




USA.gov is the U.S. government's official web portal to all federal, state and local government web resources and services.